Regional Weather Roundup
Issued by NWS Wilmington, NC

Home | Current Version | Previous Version | Text Only | Print | Product List | Glossary On
Versions: 1 2 3 4 5 6 7 8 9 10 11 12 13 14 15 16 17 18 19 20 21 22 23 24 25 26 27 28 29 30 31 32 33 34 35 36 37 38 39 40 41 42 43 44 45 46 47 48 49 50
000
ASUS42 KILM 220410
RWRILM
RWRILM
REGIONAL HOURLY WEATHER ROUNDUP
NATIONAL WEATHER SERVICE WILMINGTON NC
1200 AM EDT FRI AUG 22 2014

NOTE: "FAIR" INDICATES FEW OR NO CLOUDS BELOW 12,000 FEET WITH NO
SIGNIFICANT WEATHER AND/OR OBSTRUCTIONS TO VISIBILITY.

...............WFO WILMINGTON COUNTY WARNING AREA...............

......COASTAL NC AND SC COUNTIES......

CITY           SKY/WX    TMP DP  RH WIND       PRES   REMARKS
WILMINGTON     PTCLDY    77  74  90 CALM      30.04F
SOUTHPORT      PTCLDY    75  73  93 CALM      30.05S
N MYRTLE BEACH PTCLDY    77  74  90 W3        30.04F
MYRTLE BEACH   PTCLDY    81  73  78 SW6       30.05F

......INLAND NC AND SC COUNTIES.......

CITY           SKY/WX    TMP DP  RH WIND       PRES   REMARKS
LUMBERTON      PTCLDY    75  72  90 CALM      30.03F
ELIZABETHTOWN  PTCLDY    78  74  88 CALM      30.04S
WHITEVILLE     PTCLDY    76  74  94 CALM      30.04F
FLORENCE       PTCLDY    76  72  87 S3        30.05F
DARLINGTON     PTCLDY    73  70  88 SW3       30.06S

....................REST OF NORTH CAROLINA......................

.........EASTERN NC.........

CITY           SKY/WX    TMP DP  RH WIND       PRES   REMARKS
CAPE HATTERAS  PTCLDY    79  79 100 SW5       30.01F
JACKSONVILLE   PTCLDY    77  72  83 CALM      30.03F
MOREHEAD CITY  MOCLDY    81  78  91 SW6       30.02F
KENANSVILLE    MOCLDY    73  72  94 CALM      30.03F FOG
NEW BERN       PTCLDY    78  74  87 CALM      30.03F
ELIZABETH CITY PTCLDY    78  76  93 SW5       30.00F FOG

.........CENTRAL NC.........

CITY           SKY/WX    TMP DP  RH WIND       PRES   REMARKS
RALEIGH DURHAM MOCLDY    75  72  90 CALM      30.04S
ROCKY MOUNT    CLOUDY    76  74  93 CALM      30.02F FOG
ROANOKE RAPIDS NOT AVBL
FAYETTEVILLE   MOCLDY    78  71  79 SW3       30.02F
HOFFMAN        PTCLDY    75  72  92 CALM      30.06S

.........WESTERN NC.........

CITY           SKY/WX    TMP DP  RH WIND       PRES   REMARKS
CHARLOTTE      MOCLDY    78  71  79 CALM      30.08S
GREENSBORO     MOCLDY    79  69  71 CALM      30.08R
HICKORY        NOT AVBL
BOONE          NOT AVBL
ASHEVILLE      NOT AVBL

.....................REST OF SOUTH CAROLINA.....................

.........EASTERN SC.........

CITY           SKY/WX    TMP DP  RH WIND       PRES   REMARKS
CHARLESTON     PTCLDY    82  74  76 CALM      30.06S
BEAUFORT MCAS  CLEAR     82  78  88 CALM      30.06F HX  91
HILTON HEAD    NOT AVBL

.........CENTRAL SC.........

CITY           SKY/WX    TMP DP  RH WIND       PRES   REMARKS
COLUMBIA       PTCLDY    79  72  79 W3        30.05F
ORANGEBURG     PTCLDY    76  73  91 SW3       30.07S
SUMTER SHAW    CLEAR     80  71  74 CALM      30.05S

.........WESTERN SC.........

CITY           SKY/WX    TMP DP  RH WIND       PRES   REMARKS
GREENVILLE     NOT AVBL
ROCK HILL      PTCLDY    76  69  79 S5        30.08S
ANDERSON       CLEAR     74  70  87 NW5       30.11S
CLEMSON        NOT AVBL
GREENWOOD      CLEAR     76  69  79 CALM      30.10S


...................COASTAL AND OFFSHORE REPORTS..................

................LOCAL PIERS AND NC RESERVE................


STATION/POSITION TIME  SKY/WX   TEMP    WIND        PRES    VSBY
                                AIR SEA DIR/SP/G
                 (UTC)          (F)     (DEG/KT/KT) (MB)    (MI)
JOHNY MRCER PIER 0400            80 83  260/  6/  8 1016.6S
NC RESRV MASNBRO 0300            79     270/  2     1017.0S
OCEAN CREST PIER 0400            79 84  300/  1/  1 1016.6F
SPRINGMAID  PIER 0400            81 85  230/  6/  6 1017.5F


................COASTAL AND OFFSHORE BUOYS................


STATION/POSITION TIME  SKY/WX   TEMP    WIND        PRES    VSBY
                                AIR SEA DIR/SP/G
                 (UTC)          (F)     (DEG/KT/KT) (MB)    (MI)
DIMNDSHOAL 41025 0400            81     220/  8/ 10 1016.3F
WVE H/P(F/S)=  2/ 9 SWL H/P/D(F/S/D)=  2/ 40/ 9

CAPE LOOKOUT     0300            82     220/  7/  9 1016.8F
ONSLOW BAY 41036 0400            83 83  260/ 10/ 10 1016.4F
WVE H/P(F/S)=  2/ 9 WND WVE H/P(F/S)=  2/ 3 SWL H/P/D(F/S/D)=  2/110/ 9

5 WRITEBCH 41038 0400            78 83  250/ 10/ 10   N/A
MASONBORO  41110 0400               83                N/A
WVE H/P(F/S)=  1/11 WND WVE H/P(F/S)=  2/ 9

WILM HARBR 41108 0400               84                N/A
WVE H/P(F/S)=  2/ 5 WND WVE H/P(F/S)=  2/ 5

27WRITEBCH 41037 0300            80 83  260/  6/  8 1017.4R
FRYING PAN 41013 NOT AVBL
SUNST NRSH 41024 0300            82     310/  4/  4 1017.5R
CAPRS NRSH 41029 NOT AVBL
EDISTO     41004 0400            84 85  200/  8/ 10 1017.7F
WVE H/P(F/S)=  2/ 8 WND WVE H/P(F/S)=  2/ 4 SWL H/P/D(F/S/D)=  2/ 8



..........OFFSHORE BUOYS BEYOND 100 NM OFFSHORE...........
.....IN A TRIANGLE---HAT TO BERMUDA TO BAHAMAS TO HAT.....


STATION/POSITION TIME  SKY/WX   TEMP    WIND        PRES    VSBY
                                AIR SEA DIR/SP/G
                 (UTC)          (F)     (DEG/KT/KT) (MB)    (MI)
150E HAT   41001 NOT AVBL
W BERMUDA  41048 0337            82 81  230/ 12/ 14 1018.7F
WVE H/P(F/S)=  4/ 5 WND WVE H/P(F/S)=  3/ 5 SWL H/P/D(F/S/D)=  2/260/ 6

ATLANTIC S 41049 0330            84 86   90/ 10/ 12 1020.4F
WVE H/P(F/S)=  3/ 8 WND WVE H/P(F/S)=  2/ 4 SWL H/P/D(F/S/D)=  3/320/ 8

E BAHAMAS  41046 0349            84 85   80/ 16/ 19 1017.8F
WVE H/P(F/S)=  4/ 6 WND WVE H/P(F/S)=  3/ 6 SWL H/P/D(F/S/D)=  2/ 90/ 9

NE BAHAMAS 41047 0301            83 84   80/  4/  6 1021.0F
WVE H/P(F/S)=  3/ 6 SWL H/P/D(F/S/D)=  3/140/ 6

120E CANVRL41010 0400            85 86  180/  6/  8 1019.8F
WVE H/P(F/S)=  1/ 9 SWL H/P/D(F/S/D)=  2/140/ 9


END


USA.gov is the U.S. government's official web portal to all federal, state and local government web resources and services.